Weather History for Point Pleasant, WV

Change the Weather History Date:

Wednesday, February 6, 2013

  Actual Average (KHTS) Record (KHTS)
Temperature  
Mean Temperature 32 °F 35 °F  
Max Temperature 39 °F 44 °F 71 °F (2008)
Min Temperature 26 °F 27 °F -4 °F (1917)
Degree Days  
Heating Degree Days 32 30  
Month to date heating degree days 180  
Since 1 July heating degree days 2904  
Cooling Degree Days 0 0  
Month to date cooling degree days 0  
Year to date cooling degree days 0  
Moisture  
Dew Point 29 °F    
Average Humidity 83    
Maximum Humidity 100    
Minimum Humidity 65    
Precipitation  
Precipitation 0.00 in 0.11 in 1.00 in (1955)
Month to date precipitation 0.65  
Year to date precipitation 3.62  
Snow  
Snow 0.00 in - - ()
Month to date snowfall  
Since 1 September snowfall  
Snow Depth -    
Sea Level Pressure  
Sea Level Pressure 30.22 in    
Wind  
Wind Speed 2 mph (NNE)    
Max Wind Speed 7 mph    
Max Gust Speed -    
Visibility 8 miles    
Events      
T = Trace of Precipitation, MM = Missing Value Source: NWS Daily Summary

Daily Weather History Graph

Daily Weather History Graph

Search for Another Location

Airport:

Trip Planner

Search our weather history database for the weather conditions in past years. The results will help you decide how hot, cold, wet, or windy it might be!

Date:

Astronomy

Feb. 06, 2013 Rise Set
Actual Time 7:29 AM EST 5:55 PM EST
Civil Twilight 7:01 AM EST 6:23 PM EST
Nautical Twilight 6:30 AM EST 6:55 PM EST
Astronomical Twilight 5:59 AM EST 7:26 PM EST
Moon 4:10 AM EST (2/6) 2:13 PM EST (2/6)
Length of Visible Light 11h 21m
Length of Day
10h 26m
Waning Crescent, 17% of the Moon is Illuminated
Feb 6
Waning Crescent
Feb 10
New
Feb 17
First Quarter
Feb 25
Full
Mar 4
Last Quarter

Hourly Weather History & Observations

Time (EST) Temp. Windchill Dew Point Humidity Pressure Visibility Wind Dir Wind Speed Gust Speed Precip Events Conditions
12:15 AM 35.6 °F 32.8 °F 30.2 °F 81% 30.02 in 7.0 mi West 3.5 mph - N/A   Overcast
12:35 AM 35.6 °F 32.8 °F 30.2 °F 81% 30.03 in 10.0 mi WNW 3.5 mph - N/A   Overcast
12:55 AM 35.6 °F - 30.2 °F 81% 30.03 in 10.0 mi Calm Calm - N/A   Overcast
1:15 AM 33.8 °F - 30.2 °F 87% 30.04 in 7.0 mi Calm Calm - N/A   Overcast
1:35 AM 33.8 °F - 32.0 °F 93% 30.05 in 7.0 mi Calm Calm - N/A   Overcast
1:55 AM 33.8 °F 28.6 °F 32.0 °F 93% 30.06 in 7.0 mi WNW 5.8 mph - N/A   Overcast
2:15 AM 35.6 °F 29.9 °F 30.2 °F 81% 30.07 in 10.0 mi West 6.9 mph - N/A   Overcast
2:35 AM 35.6 °F - 30.2 °F 81% 30.08 in 10.0 mi Calm Calm - N/A   Overcast
2:55 AM 33.8 °F 30.8 °F 30.2 °F 87% 30.09 in 10.0 mi West 3.5 mph - N/A   Overcast
3:15 AM 33.8 °F - 30.2 °F 87% 30.10 in 10.0 mi Calm Calm - N/A   Overcast
3:35 AM 33.8 °F - 30.2 °F 87% 30.10 in 10.0 mi Calm Calm - N/A   Overcast
3:55 AM 33.8 °F - 30.2 °F 87% 30.11 in 10.0 mi Calm Calm - N/A   Overcast
4:15 AM 33.8 °F - 30.2 °F 87% 30.11 in 10.0 mi Calm Calm - N/A   Overcast
4:35 AM 33.8 °F - 30.2 °F 87% 30.12 in 10.0 mi Calm Calm - N/A   Overcast
4:55 AM 33.8 °F - 30.2 °F 87% 30.13 in 7.0 mi Calm Calm - N/A   Overcast
5:15 AM 33.8 °F - 30.2 °F 87% 30.14 in 10.0 mi Calm Calm - N/A   Overcast
5:35 AM 33.8 °F - 30.2 °F 87% 30.14 in 10.0 mi Calm Calm - N/A   Overcast
5:55 AM 33.8 °F - 30.2 °F 87% 30.15 in 7.0 mi Calm Calm - N/A   Overcast
6:15 AM 33.8 °F - 30.2 °F 87% 30.16 in 7.0 mi Calm Calm - N/A   Overcast
6:35 AM 32.0 °F - 32.0 °F 100% 30.16 in 7.0 mi Calm Calm - N/A   Overcast
6:55 AM 32.0 °F - 32.0 °F 100% 30.18 in 7.0 mi Calm Calm - N/A   Overcast
7:15 AM 32.0 °F - 32.0 °F 100% 30.19 in 7.0 mi Calm Calm - N/A   Overcast
7:35 AM 32.0 °F - 32.0 °F 100% 30.20 in 7.0 mi Calm Calm - N/A   Overcast
7:55 AM 32.0 °F - 32.0 °F 100% 30.20 in 7.0 mi Calm Calm - N/A   Overcast
8:15 AM 33.8 °F - 30.2 °F 87% 30.20 in 7.0 mi Calm Calm - N/A   Overcast
8:35 AM 33.8 °F - 30.2 °F 87% 30.22 in 7.0 mi Calm Calm - N/A   Overcast
8:55 AM 33.8 °F - 30.2 °F 87% 30.22 in 7.0 mi Calm Calm - N/A   Overcast
9:15 AM 33.8 °F 30.8 °F 30.2 °F 87% 30.23 in 7.0 mi NNE 3.5 mph - N/A   Overcast
9:35 AM 33.8 °F 30.8 °F 30.2 °F 87% 30.24 in 7.0 mi North 3.5 mph - N/A   Overcast
9:55 AM 35.6 °F - 30.2 °F 81% 30.24 in 5.0 mi Calm Calm - N/A   Haze
10:15 AM 35.6 °F - 30.2 °F 81% 30.25 in 7.0 mi Calm Calm - N/A   Overcast
10:35 AM 35.6 °F - 30.2 °F 81% 30.26 in 7.0 mi Calm Calm - N/A   Overcast
10:55 AM 35.6 °F - 30.2 °F 81% 30.26 in 7.0 mi Calm Calm - N/A   Overcast
11:15 AM 35.6 °F - 30.2 °F 81% 30.27 in 7.0 mi Calm Calm - N/A   Overcast
11:35 AM 35.6 °F - 28.4 °F 75% 30.26 in 7.0 mi Calm Calm - N/A   Overcast
11:55 AM 35.6 °F 32.8 °F 28.4 °F 75% 30.26 in 7.0 mi NNE 3.5 mph - N/A   Overcast
12:15 PM 37.4 °F - 28.4 °F 70% 30.27 in 7.0 mi Calm Calm - N/A   Overcast
12:35 PM 37.4 °F - 28.4 °F 70% 30.27 in 7.0 mi Calm Calm - N/A   Overcast
12:55 PM 37.4 °F - 28.4 °F 70% 30.27 in 7.0 mi Calm Calm - N/A   Overcast
1:15 PM 37.4 °F 33.8 °F 28.4 °F 70% 30.26 in 7.0 mi ENE 4.6 mph - N/A   Overcast
1:35 PM 37.4 °F - 28.4 °F 70% 30.26 in 7.0 mi Calm Calm - N/A   Overcast
1:55 PM 37.4 °F - 28.4 °F 70% 30.26 in 10.0 mi Calm Calm - N/A   Overcast
2:15 PM 37.4 °F - 28.4 °F 70% 30.26 in 7.0 mi Calm Calm - N/A   Overcast
2:35 PM 37.4 °F - 28.4 °F 70% 30.26 in 10.0 mi Calm Calm - N/A   Overcast
2:55 PM 37.4 °F 34.9 °F 28.4 °F 70% 30.26 in 7.0 mi NNE 3.5 mph - N/A   Overcast
3:15 PM 37.4 °F 34.9 °F 28.4 °F 70% 30.27 in 10.0 mi NE 3.5 mph - N/A   Overcast
3:35 PM 37.4 °F 34.9 °F 28.4 °F 70% 30.27 in 10.0 mi NE 3.5 mph - N/A   Overcast
3:55 PM 37.4 °F 33.8 °F 28.4 °F 70% 30.27 in 10.0 mi East 4.6 mph - N/A   Overcast
4:15 PM 39.2 °F 37.0 °F 28.4 °F 65% 30.27 in 10.0 mi NNE 3.5 mph - N/A   Overcast
4:35 PM 37.4 °F 34.9 °F 28.4 °F 70% 30.28 in 7.0 mi NE 3.5 mph - N/A   Overcast
4:55 PM 37.4 °F 34.9 °F 28.4 °F 70% 30.28 in 10.0 mi NNE 3.5 mph - N/A   Overcast
5:15 PM 35.6 °F 32.8 °F 28.4 °F 75% 30.28 in 7.0 mi ENE 3.5 mph - N/A   Overcast
5:35 PM 35.6 °F 31.7 °F 26.6 °F 70% 30.28 in 7.0 mi ENE 4.6 mph - N/A   Scattered Clouds
5:55 PM 33.8 °F 28.6 °F 26.6 °F 75% 30.28 in 10.0 mi ENE 5.8 mph - N/A   Clear
6:15 PM 32.0 °F - 26.6 °F 80% 30.28 in 10.0 mi Calm Calm - N/A   Clear
6:35 PM 32.0 °F - 26.6 °F 80% 30.29 in 10.0 mi Calm Calm - N/A   Clear
6:55 PM 30.2 °F - 26.6 °F 86% 30.29 in 7.0 mi Calm Calm - N/A   Clear
7:15 PM 30.2 °F - 26.6 °F 86% 30.29 in 10.0 mi Calm Calm - N/A   Clear
7:35 PM 30.2 °F 26.7 °F 26.6 °F 86% 30.29 in 7.0 mi ENE 3.5 mph - N/A   Clear
7:55 PM 28.4 °F - 26.6 °F 93% 30.29 in 7.0 mi Calm Calm - N/A   Clear
8:15 PM 28.4 °F - 26.6 °F 93% 30.29 in 7.0 mi Calm Calm - N/A   Clear
8:35 PM 28.4 °F - 26.6 °F 93% 30.29 in 7.0 mi Calm Calm - N/A   Clear
8:55 PM 28.4 °F - 26.6 °F 93% 30.29 in 7.0 mi Calm Calm - N/A   Clear
9:15 PM 28.4 °F 24.6 °F 24.8 °F 86% 30.29 in 7.0 mi NE 3.5 mph - N/A   Clear
9:35 PM 28.4 °F 24.6 °F 24.8 °F 86% 30.28 in 7.0 mi East 3.5 mph - N/A   Clear
9:55 PM 28.4 °F - 24.8 °F 86% 30.28 in 7.0 mi Calm Calm - N/A   Clear
10:15 PM 26.6 °F - 24.8 °F 93% 30.29 in 7.0 mi Calm Calm - N/A   Clear
10:35 PM 26.6 °F 22.6 °F 24.8 °F 93% 30.27 in 5.0 mi East 3.5 mph - N/A   Clear
10:55 PM 26.6 °F - 24.8 °F 93% 30.27 in 5.0 mi Calm Calm - N/A   Clear
11:15 PM 28.4 °F - 24.8 °F 86% 30.28 in 7.0 mi Calm Calm - N/A   Clear
11:35 PM 28.4 °F - 26.6 °F 93% 30.28 in 7.0 mi Calm Calm - N/A   Clear
11:55 PM 28.4 °F - 24.8 °F 86% 30.29 in 7.0 mi Calm Calm - N/A   Clear